GEFSMA_500_meanwind_042.txt.gz
Wind_Speed
31 31 30 31 31 32 32 32 33 33 32 31 30 29 28 27 27 26 26 26 26 26 25 24 25 24 23 21 19 18 17 17 17 17 18 18 18 18 18 18 17 16 15
35 35 34 34 34 35 36 36 37 37 36 35 34 33 32 30 30 30 29 28 28 27 27 27 26 27 26 25 23 22 21 20 19 18 19 19 20 20 20 20 19 18 17
37 38 37 37 37 38 39 39 40 40 40 40 37 37 36 34 33 33 32 31 30 30 30 29 29 30 30 29 28 26 25 23 21 21 20 20 21 21 21 22 21 20 19
38 38 39 39 40 41 41 41 42 42 42 42 41 40 37 37 36 35 34 33 32 31 32 31 32 32 32 32 32 30 29 26 25 23 23 22 22 22 23 23 23 23 22
38 40 40 40 41 42 42 42 43 43 43 43 42 40 38 38 37 37 36 35 34 33 33 33 33 33 34 34 34 33 32 30 29 26 25 24 24 24 24 24 24 24 24
38 39 40 41 42 43 43 44 43 43 42 41 39 37 36 35 35 36 36 35 36 35 34 34 35 34 34 34 36 35 34 33 32 30 28 27 26 25 25 25 26 26 25
38 39 40 41 42 42 42 43 43 43 42 40 39 36 33 32 32 32 33 34 35 35 35 34 34 34 34 34 35 37 37 35 33 32 29 28 27 27 27 27 27 27 26
37 38 39 40 42 42 41 41 42 41 40 40 38 34 31 30 30 31 31 32 33 34 33 33 33 33 34 34 35 36 36 36 35 33 31 29 28 27 27 27 28 28 27
37 38 39 40 41 41 41 40 40 39 38 37 36 33 31 30 30 30 31 32 33 33 32 32 31 31 32 32 33 35 36 36 36 35 32 30 29 28 28 28 28 28 28
36 38 38 39 39 40 40 39 39 38 37 35 34 33 33 32 31 31 32 33 33 32 32 31 31 30 30 31 32 33 34 34 35 34 32 31 29 28 28 28 28 29 29
37 38 39 40 40 41 41 40 40 38 37 36 35 34 34 33 33 32 32 32 32 32 31 30 30 29 30 29 30 32 32 33 33 33 33 31 29 28 28 27 28 28 28
37 38 39 40 40 41 42 41 41 40 39 38 36 35 35 34 34 33 32 32 32 31 31 30 30 29 29 29 30 31 32 32 33 33 33 32 30 29 28 27 27 27 27
37 37 38 39 40 41 42 42 41 41 40 39 38 37 36 35 34 33 33 33 32 31 31 30 29 29 28 28 30 31 32 33 33 32 32 32 30 30 29 28 28 27 28
37 37 37 38 39 39 40 41 41 41 40 39 38 38 37 36 35 34 34 32 31 31 31 29 28 28 28 28 28 30 30 31 32 33 33 33 31 30 29 29 29 29 29
37 36 36 36 37 38 38 39 39 40 40 39 38 38 37 36 35 34 34 32 31 31 30 28 27 27 27 27 28 29 29 30 31 32 32 32 32 31 31 31 31 32 32
38 37 36 35 34 34 35 36 37 37 38 38 38 37 36 35 34 33 33 32 31 29 28 27 26 26 26 27 26 27 29 29 29 30 31 31 31 31 31 32 33 33 34
39 38 36 34 33 32 32 33 34 34 35 36 35 34 33 32 31 31 31 30 28 27 26 26 25 25 24 25 26 25 26 26 27 28 28 29 30 31 32 32 33 34 35
39 38 36 33 31 30 29 30 31 31 32 32 31 30 29 28 28 28 28 27 26 26 26 25 24 24 24 24 25 26 26 27 27 28 28 29 30 32 32 33 34 35 35
39 38 35 33 30 29 28 27 27 27 27 27 27 26 26 26 25 25 26 26 25 26 26 25 24 24 24 25 24 25 25 26 26 27 28 28 29 30 32 34 35 36 37
39 38 35 32 29 28 27 26 25 24 23 23 23 23 23 23 23 24 24 24 24 25 24 23 23 23 22 22 22 22 22 23 24 24 25 27 28 30 31 33 35 37 39
39 37 34 30 29 27 25 24 23 21 20 20 19 20 20 21 21 21 22 22 23 23 22 22 22 20 20 19 19 19 20 20 22 23 24 26 28 29 31 33 35 37 39
39 37 33 30 27 25 23 22 21 20 19 17 17 17 18 19 19 19 20 21 21 21 20 20 19 18 18 17 17 17 17 19 20 22 24 26 28 30 32 34 36 38 40
39 36 33 30 27 24 22 21 19 18 17 16 14 15 16 16 17 18 18 18 17 17 16 16 16 15 15 14 14 14 15 17 18 20 21 23 25 27 29 32 34 37 39
39 36 32 29 26 23 21 19 17 17 15 14 13 13 14 14 15 16 15 14 14 14 13 12 11 11 11 11 11 12 13 14 16 18 20 23 25 28 30 32 35 37 39
39 36 32 28 25 22 20 18 16 14 13 12 12 12 13 13 14 13 13 12 11 11 10 9 9 9 9 9 9 10 11 13 15 17 19 22 24 27 30 32 34 37 39
39 36 31 27 25 22 19 16 14 13 12 11 11 11 11 11 11 11 11 11 11 10 9 8 7 7 6 6 7 8 9 11 13 15 17 20 23 26 29 31 33 34 36

GEFSMA_500_meanwind_048.txt.gz
Wind_Speed
31 33 33 34 35 35 35 36 36 36 36 35 35 35 34 34 34 34 33 31 31 30 28 28 27 26 25 24 23 22 21 20 20 19 19 18 18 17 17 17 16 15 15
31 32 34 34 35 36 36 37 38 39 38 38 38 38 39 38 38 36 35 35 34 33 32 31 30 29 28 27 26 25 24 24 23 21 21 20 20 19 19 19 18 17 17
29 30 32 33 35 35 36 37 38 39 40 40 40 40 41 40 39 37 37 37 36 35 35 34 33 31 30 30 29 28 27 26 26 25 24 23 22 22 21 21 20 20 19
27 28 29 31 32 34 35 36 37 38 40 41 42 41 41 40 39 39 38 37 36 37 37 35 35 33 32 31 31 31 30 29 29 28 28 26 25 24 23 22 22 22 21
25 25 26 28 30 32 33 35 36 37 39 40 41 41 40 39 38 37 36 36 36 36 38 38 37 36 34 33 32 32 32 32 32 31 31 30 28 26 25 24 24 24 23
22 23 24 26 28 30 32 34 35 37 38 39 40 39 38 37 37 36 36 36 35 35 37 37 37 38 37 35 34 34 34 33 33 33 33 32 31 30 28 27 26 25 25
22 23 24 25 27 29 31 33 35 37 38 39 39 39 38 38 36 35 35 33 33 34 35 36 36 37 38 36 35 35 34 33 33 33 34 34 34 33 32 30 28 28 27
21 22 23 25 27 29 31 33 35 37 38 39 39 38 37 36 34 34 32 31 31 32 33 34 35 36 38 37 36 36 35 33 33 33 34 35 35 35 35 34 32 30 30
22 22 24 25 27 29 31 33 35 36 37 38 39 39 38 35 33 32 31 31 31 31 31 31 32 33 33 34 35 35 35 33 32 33 34 35 36 37 36 36 34 32 31
23 24 25 26 27 29 31 33 35 36 37 38 39 40 38 36 35 32 31 30 29 29 30 30 31 32 33 33 34 34 33 33 32 33 33 35 36 37 37 37 36 34 33
26 26 26 27 28 30 31 33 34 36 37 38 38 39 38 36 35 33 31 30 30 30 30 31 32 32 32 33 33 33 32 32 32 32 33 34 35 37 37 38 37 36 35
28 27 27 28 30 31 32 33 34 35 36 37 38 38 37 36 35 34 33 31 31 30 30 30 31 31 32 33 33 32 32 32 32 32 32 33 35 36 37 37 37 36 36
30 29 29 30 31 32 33 34 34 34 35 36 36 36 36 36 35 35 34 33 32 31 30 30 30 30 31 32 32 31 31 32 32 32 32 33 34 35 35 36 37 35 35
32 31 31 31 32 33 33 34 34 34 34 34 34 34 34 34 34 35 34 34 33 32 32 31 31 31 31 31 31 31 30 31 31 32 32 33 34 34 35 35 37 37 36
34 33 33 33 33 34 34 34 33 33 33 33 32 31 31 32 33 34 34 34 34 33 33 32 33 32 31 31 30 30 30 31 31 32 32 34 35 35 35 35 36 37 36
36 36 34 34 34 34 34 34 33 33 33 32 31 30 30 31 32 33 34 34 34 34 34 34 33 32 31 31 30 30 30 30 31 31 32 33 34 35 36 36 36 36 36
38 37 37 36 36 36 35 35 34 33 33 32 30 29 29 29 30 32 32 33 33 34 34 34 33 31 31 31 30 30 30 30 31 31 31 31 32 33 34 34 36 36 37
43 41 40 39 38 37 36 36 34 33 33 32 30 29 28 28 29 30 31 32 33 33 33 33 32 32 31 31 31 30 29 28 29 29 30 30 31 32 33 34 34 35 36
48 46 44 42 41 40 38 37 35 34 33 32 30 29 28 28 28 29 29 30 31 31 31 32 32 32 32 31 30 29 28 28 28 29 29 30 30 30 31 31 32 33 36
53 50 48 46 44 42 40 38 37 35 33 32 30 29 28 27 26 27 27 27 29 30 30 30 31 31 30 30 29 29 28 28 28 28 28 28 28 28 28 29 30 32 33
59 56 52 50 48 45 42 40 38 36 34 32 31 29 27 25 25 25 25 26 27 28 29 30 29 29 30 30 29 30 29 27 26 26 25 25 25 25 25 26 27 28 30
64 60 56 53 50 48 44 41 39 36 34 32 30 29 27 25 24 24 24 25 26 27 27 28 29 28 29 29 28 27 27 26 24 23 22 22 22 22 23 24 25 27 28
67 63 58 55 51 48 45 41 39 36 33 30 28 27 25 24 24 24 23 23 24 25 27 26 26 27 26 26 25 24 23 22 20 20 19 18 18 18 19 21 22 23 24
64 60 56 52 49 46 43 40 37 35 33 30 27 26 25 25 23 22 21 22 22 22 22 22 23 24 24 23 21 21 20 18 17 17 16 15 15 15 16 17 19 21 23
58 56 53 50 47 44 41 39 37 35 32 29 27 25 24 23 22 22 21 22 22 21 20 20 21 21 21 20 18 17 16 15 15 14 12 12 12 12 13 15 18 20 23
49 49 48 46 44 43 40 38 36 34 31 29 26 24 23 22 22 21 21 21 21 20 20 20 19 18 17 17 16 15 14 13 11 10 9 9 9 10 11 14 16 18 21

GEFSMA_500_meanwind_054.txt.gz
Wind_Speed
28 29 30 30 29 29 29 28 28 28 28 28 28 28 28 29 30 30 30 30 29 29 30 29 28 28 27 27 26 25 24 23 22 21 20 20 20 19 19 19 18 18 17
29 28 28 28 28 28 27 26 26 27 26 26 27 27 28 29 30 31 32 31 30 30 30 30 29 29 30 29 29 29 27 26 25 24 24 23 22 21 21 20 20 20 19
27 27 26 26 26 25 23 22 23 24 24 25 26 28 28 28 30 33 33 34 32 31 31 31 31 30 31 31 31 31 31 29 28 27 26 26 25 24 23 22 22 21 21
26 25 24 24 23 22 21 20 20 21 22 23 24 26 27 28 28 29 31 31 32 32 32 33 32 32 32 33 33 33 32 32 31 30 29 28 27 26 26 25 24 24 23
25 25 23 22 21 20 20 20 21 21 22 23 24 25 26 27 27 28 29 29 30 31 32 32 33 33 33 33 34 34 34 33 33 32 31 30 30 29 28 28 27 26 25
25 24 23 21 21 20 20 20 21 21 22 24 25 25 26 27 28 28 29 29 29 30 31 30 31 32 32 33 34 34 35 35 34 33 32 32 31 31 31 30 30 28 27
24 23 22 21 21 21 20 20 21 22 23 24 25 25 26 27 28 28 29 29 29 29 29 30 30 30 32 33 33 33 34 35 35 34 33 32 32 31 32 32 32 31 30
24 23 23 22 22 21 21 21 21 22 23 25 26 26 26 27 28 28 29 29 30 30 30 29 29 29 29 30 31 31 33 34 36 35 35 35 33 32 32 33 34 34 33
25 24 24 24 23 23 22 23 23 23 24 26 27 28 28 27 28 28 29 28 29 29 30 30 28 28 28 29 30 30 31 34 35 35 34 34 34 33 32 32 34 35 35
26 26 26 26 26 26 25 25 25 25 26 27 28 29 29 29 29 27 28 29 29 29 29 29 28 27 28 28 28 29 30 31 34 33 34 34 34 34 33 33 34 34 35
28 28 28 29 29 29 29 28 28 28 28 28 29 30 30 31 30 28 26 28 29 29 29 29 29 28 28 27 26 27 29 30 32 33 33 33 33 33 33 33 33 34 34
30 31 31 32 32 32 32 32 31 31 31 30 30 30 31 31 31 30 28 27 28 28 28 28 28 28 28 26 27 26 26 28 30 30 32 32 32 32 32 32 33 34 34
34 35 34 34 35 35 35 35 34 34 34 33 32 31 31 31 31 31 29 27 27 27 28 27 27 28 28 27 26 26 26 27 28 29 30 31 30 30 31 31 32 32 33
38 39 38 37 37 37 37 37 37 37 36 35 34 33 32 32 31 31 30 28 27 26 27 27 28 29 29 28 27 27 26 26 26 27 28 29 29 30 31 31 31 32 32
43 42 42 41 41 41 40 40 39 38 38 36 35 34 33 32 32 31 30 29 27 25 25 27 28 28 29 28 27 26 26 25 25 26 26 26 28 29 30 29 29 30 30
48 47 46 45 44 43 43 42 41 40 39 38 36 35 34 33 33 31 30 29 28 26 25 26 27 27 27 27 26 25 25 25 25 26 26 26 26 27 28 28 29 28 29
54 53 51 50 48 47 45 44 43 41 40 39 38 37 35 34 33 32 30 29 28 27 25 25 27 27 27 27 26 26 25 25 25 25 26 26 27 27 28 28 29 28 29
60 59 57 55 53 51 48 46 45 43 42 40 39 38 36 35 33 32 31 30 28 27 26 25 26 27 27 27 27 26 25 25 25 25 25 26 26 25 25 25 26 27 27
66 64 62 60 57 55 52 50 47 46 45 42 40 38 37 36 34 33 31 30 28 27 27 26 26 27 27 27 27 26 26 26 26 25 25 25 25 24 24 25 25 26 27
70 69 67 65 63 59 56 54 51 49 46 44 42 40 38 37 35 33 32 30 29 27 27 26 26 27 27 26 26 26 26 26 26 26 26 26 25 25 24 24 24 24 25
74 73 71 69 68 65 62 59 54 52 49 46 43 41 39 37 35 34 32 31 29 27 27 26 26 26 27 26 26 25 25 26 26 25 25 25 25 24 23 23 23 23 23
74 75 75 73 71 68 65 62 59 55 51 47 45 43 40 38 36 34 32 31 29 28 26 25 24 25 26 25 25 25 24 25 25 24 23 23 23 22 22 22 22 21 21
65 67 69 70 69 68 67 64 62 59 55 51 47 45 42 39 37 35 32 31 29 28 27 25 23 23 24 26 26 24 23 24 25 24 23 22 21 20 20 20 19 19 19
49 53 56 59 62 62 62 62 61 59 56 52 49 46 43 40 37 35 33 31 29 28 26 25 23 23 24 24 24 24 24 25 25 23 21 20 20 19 18 17 18 17 17
37 39 42 46 49 51 53 54 55 54 52 49 47 45 42 39 36 35 32 30 28 27 26 25 24 23 23 23 22 22 22 22 22 21 19 18 18 17 16 15 15 15 14
31 32 33 35 37 40 43 46 48 48 47 45 44 43 40 38 36 34 32 30 28 26 25 24 23 22 22 22 21 20 20 19 19 18 17 16 16 15 14 13 12 11 10

GEFSMA_500_meanwind_060.txt.gz
Wind_Speed
25 25 24 24 23 23 23 23 22 22 20 19 19 19 19 20 21 21 21 22 23 25 25 24 24 24 24 23 23 23 23 22 21 21 19 18 18 18 17 17 17 16 16
25 24 24 23 23 22 22 21 20 19 18 17 17 17 17 18 18 19 20 21 22 24 26 27 27 26 26 26 25 25 25 25 24 23 23 22 21 21 20 19 19 18 18
25 24 23 23 22 21 21 20 18 16 16 15 15 15 15 16 16 17 17 19 20 22 24 25 27 27 27 27 27 28 28 27 27 26 26 26 25 24 23 22 21 20 20
25 23 23 23 22 21 20 18 17 16 16 15 14 14 14 15 15 15 16 17 18 20 22 24 26 27 28 28 29 30 29 30 29 29 29 29 28 27 26 25 24 23 22
25 23 23 23 22 21 20 19 18 17 16 15 14 15 14 15 15 16 16 17 18 19 21 23 25 26 27 28 30 31 31 31 31 31 31 31 31 30 29 28 28 26 25
26 24 24 23 22 21 20 19 19 18 17 16 15 15 15 15 16 16 17 18 19 19 20 22 24 26 27 28 29 31 32 32 32 32 32 33 33 33 32 31 30 29 28
26 25 24 23 22 21 21 20 19 19 18 17 16 16 15 15 15 16 17 18 19 20 20 21 23 25 27 28 29 29 31 33 34 33 33 34 35 35 35 33 32 31 30
26 26 26 24 23 22 22 21 21 20 20 18 17 17 16 16 16 17 17 18 19 20 20 21 22 24 25 28 28 30 31 32 33 34 34 34 35 36 36 36 35 33 32
26 26 26 25 24 24 23 23 23 22 22 21 20 19 17 17 18 18 18 19 19 20 21 21 22 23 24 25 27 28 29 31 32 32 33 34 35 36 36 36 35 34 33
27 27 26 26 26 26 26 26 25 25 24 24 23 22 21 19 19 19 20 20 20 21 22 22 22 23 24 24 25 27 27 28 30 31 31 33 34 36 36 36 36 35 34
29 28 28 29 28 28 28 28 29 28 28 27 27 26 24 23 21 20 21 22 22 22 22 22 22 23 24 24 24 26 26 26 27 29 30 30 32 34 36 37 37 36 35
34 33 32 32 31 31 32 32 32 32 31 30 30 29 28 27 25 24 23 23 23 23 23 23 23 23 23 24 24 24 25 25 26 28 29 30 31 32 34 36 37 36 35
39 38 37 36 36 35 36 35 35 35 34 34 33 32 31 30 29 27 26 25 24 24 24 24 24 23 23 23 24 25 25 25 25 26 27 29 30 31 32 33 35 34 34
45 44 43 42 42 41 41 40 39 39 38 37 36 35 34 33 31 30 29 27 25 25 25 25 25 24 23 23 23 25 24 25 25 25 26 27 28 29 30 32 33 33 33
50 49 49 48 48 47 46 45 43 42 42 40 39 37 36 35 34 33 31 29 28 26 25 26 25 24 23 23 22 24 24 24 24 24 25 25 25 27 29 30 31 32 32
55 55 54 53 53 52 51 50 49 46 45 44 43 41 39 38 36 35 34 32 30 28 26 26 25 25 24 22 22 23 24 25 24 24 23 23 23 24 26 27 29 30 31
60 59 59 58 57 56 55 54 52 51 50 48 46 45 42 40 39 37 35 34 33 30 27 27 26 25 24 23 22 23 24 24 23 23 23 23 23 23 23 24 26 28 29
64 63 63 62 61 60 59 57 56 54 53 51 49 48 45 43 41 39 38 36 34 32 29 27 27 25 24 22 22 22 22 22 22 22 23 23 22 23 23 24 25 26 26
66 66 66 65 64 63 62 60 59 57 56 54 52 50 48 45 43 41 39 37 35 34 31 28 27 25 24 23 22 22 22 22 22 22 23 23 23 23 23 23 23 23 24
66 67 67 68 67 67 65 64 62 60 58 57 55 53 51 48 45 43 41 38 36 34 31 30 28 26 24 23 21 20 21 21 22 22 22 22 23 23 23 23 23 23 23
58 60 63 65 66 67 67 66 65 64 61 59 57 55 53 51 48 45 43 40 38 35 32 30 28 27 25 23 22 21 21 21 21 21 22 23 23 23 23 23 23 23 22
46 48 51 54 57 61 64 65 66 65 64 61 59 57 54 52 50 47 44 42 39 36 33 31 29 27 25 24 23 22 21 21 21 22 22 22 22 22 22 23 23 23 22
35 37 38 41 44 48 52 56 60 62 63 62 61 59 56 53 51 49 47 43 40 37 34 31 29 27 25 24 22 22 22 21 21 21 22 22 22 23 22 21 22 22 21
32 32 32 33 34 36 40 44 49 54 57 58 59 59 57 55 52 51 49 45 41 38 35 32 30 28 25 24 22 22 22 21 21 21 21 22 22 22 22 21 21 20 20
31 30 30 30 30 31 33 36 39 44 48 51 54 56 55 54 53 51 49 47 43 40 36 32 30 28 26 24 22 22 21 21 21 21 20 21 21 21 21 20 20 20 20
31 30 28 28 28 28 29 30 33 35 40 44 48 51 52 51 51 50 49 47 44 41 37 33 31 29 27 24 23 22 22 22 21 21 20 21 21 20 20 20 20 20 20

GEFSMA_500_meanwind_066.txt.gz
Wind_Speed
28 27 27 27 26 25 24 23 22 22 21 21 21 21 22 22 19 19 20 20 20 21 21 22 23 23 23 24 24 23 23 23 22 21 20 19 17 18 18 18 17 16 15
29 28 27 27 27 26 24 22 22 21 21 20 19 19 19 18 19 19 19 20 20 20 20 20 21 22 23 24 25 25 25 25 25 24 23 22 21 20 20 20 19 18 17
30 30 28 28 27 25 23 22 21 21 20 19 19 18 18 17 18 18 18 18 18 19 19 20 20 21 23 24 25 26 26 27 27 27 26 25 25 23 22 22 21 21 19
31 30 28 28 27 25 23 21 21 21 20 20 19 18 17 17 17 16 16 16 16 17 18 18 19 20 21 23 24 25 26 28 29 28 28 28 27 26 25 24 23 23 22
31 29 28 27 26 25 22 21 21 21 21 20 20 19 19 18 18 17 17 16 16 16 16 17 18 20 21 22 24 25 25 26 28 30 30 29 29 29 28 27 26 25 24
29 28 28 27 26 24 22 23 23 22 22 21 21 21 20 20 19 18 17 17 17 17 17 17 18 18 19 21 23 24 25 26 27 29 31 31 31 31 30 30 29 28 27
26 27 27 27 26 24 23 23 23 23 23 23 22 22 22 21 20 19 18 17 17 17 17 17 18 18 19 19 21 23 24 26 27 28 30 31 32 33 32 31 31 30 30
24 24 25 25 25 24 24 24 24 24 24 24 24 23 23 22 21 20 19 18 17 17 17 16 16 17 17 18 19 21 23 25 25 27 29 31 32 32 32 32 33 33 32
24 24 25 26 26 26 25 25 26 26 26 25 26 25 25 24 23 21 19 18 17 17 16 16 16 17 17 17 18 19 20 22 25 26 28 29 31 32 33 33 33 33 33
27 27 27 28 28 28 28 28 28 28 28 28 28 27 27 26 25 23 22 20 19 18 17 17 17 17 17 17 18 19 20 21 23 25 26 28 30 32 34 34 34 34 35
30 30 30 31 31 31 31 31 30 30 30 30 30 30 29 29 28 27 25 24 22 20 19 18 18 18 17 18 18 19 20 22 23 24 25 26 28 30 31 33 34 35 35
36 36 36 36 35 35 34 34 34 33 33 33 32 33 33 32 31 30 29 27 25 24 22 20 20 19 18 18 19 19 20 21 23 24 24 25 26 28 28 30 32 33 34
43 42 42 41 40 40 40 39 38 38 37 37 36 36 36 35 35 34 32 31 29 27 25 24 22 20 19 19 19 19 20 21 22 23 23 24 25 26 27 28 30 31 32
48 48 48 48 47 46 46 45 44 43 43 42 40 40 40 38 38 37 35 34 32 30 29 27 25 23 21 20 20 19 20 21 21 22 23 23 23 25 25 27 29 31 32
54 54 53 53 53 52 51 51 50 49 48 47 46 45 43 42 41 40 39 37 35 33 31 30 28 25 23 21 20 20 20 20 21 21 22 23 23 24 25 26 28 29 30
59 59 59 58 58 57 56 56 56 54 54 53 52 51 49 47 46 44 42 40 39 36 33 32 31 28 25 23 22 21 21 21 21 21 22 23 23 23 23 25 27 29 29
61 61 61 61 61 61 60 60 60 60 58 57 56 55 53 52 50 49 47 44 42 39 36 33 33 31 28 25 23 22 21 21 21 21 22 22 23 23 23 24 26 28 29
58 59 61 62 62 63 63 63 63 63 63 62 61 59 57 56 54 52 50 48 45 42 39 36 34 32 30 27 25 23 22 21 21 21 22 22 23 23 24 24 24 26 27
50 53 56 58 60 62 64 65 64 64 64 64 63 63 61 59 57 55 52 50 48 45 42 39 36 34 31 29 26 24 23 21 21 22 22 23 23 23 24 24 24 24 25
44 45 47 49 52 56 59 63 65 66 66 66 65 64 63 62 60 58 56 53 50 48 45 42 38 36 33 30 27 26 24 23 22 22 22 22 23 22 22 23 24 24 24
42 42 42 42 44 47 51 56 61 65 67 67 67 66 65 64 62 60 58 55 53 50 47 44 41 38 35 32 29 27 25 23 23 22 22 22 23 23 22 22 23 24 25
41 40 40 39 39 40 43 46 51 56 61 65 67 66 65 64 63 62 59 57 55 51 48 46 42 39 36 33 30 28 26 25 24 23 23 22 23 23 22 22 22 24 24
42 40 38 37 37 37 38 39 42 45 50 55 61 64 65 64 63 63 61 58 56 53 50 47 43 40 37 34 32 29 27 26 25 24 24 23 22 23 23 22 22 22 23
41 39 38 37 36 34 34 34 34 36 38 43 49 55 60 61 61 61 61 59 56 54 51 48 44 41 39 36 33 30 28 27 25 24 23 24 23 23 23 23 23 23 23
39 38 37 36 34 33 32 32 32 31 32 35 39 45 51 55 58 59 59 59 57 54 52 49 46 44 41 37 34 31 29 27 25 24 24 24 24 24 24 23 23 23 23
37 35 34 34 33 32 31 30 30 29 29 31 33 37 41 47 53 55 57 57 57 54 52 50 48 45 41 38 35 32 30 28 26 25 24 23 23 23 23 22 22 22 23

GEFSMA_500_meanwind_072.txt.gz
Wind_Speed
37 37 36 34 32 30 29 28 26 25 25 24 24 23 23 22 21 22 22 22 22 22 23 22 22 22 23 23 23 25 25 23 23 23 22 21 20 19 19 19 18 17 17
38 39 37 35 34 33 31 29 27 27 26 26 25 25 24 23 22 22 22 22 22 22 22 23 23 22 22 23 24 24 25 26 24 24 24 24 23 22 21 20 20 19 19
40 39 38 37 36 35 33 31 29 29 28 27 25 24 24 23 22 22 22 21 21 21 22 22 22 22 22 22 22 23 24 26 26 25 24 25 26 25 24 22 21 21 20
40 40 40 39 37 36 35 33 32 30 29 28 26 25 24 23 23 22 21 21 20 21 22 22 21 22 21 21 21 21 22 24 25 25 26 25 27 27 26 25 24 23 22
37 37 38 38 36 36 35 34 33 31 30 29 27 26 25 24 24 23 22 21 21 21 21 21 20 20 21 21 21 21 21 22 22 24 25 26 27 28 28 28 27 26 25
32 33 35 35 34 33 33 33 33 31 30 30 28 27 26 25 25 24 23 22 21 21 21 20 20 19 19 19 19 19 20 21 21 23 24 25 26 28 29 29 29 28 28
27 28 29 31 32 32 32 33 32 32 31 30 29 28 27 27 26 25 24 23 22 22 21 20 20 19 18 18 18 18 19 19 20 20 22 24 26 27 30 30 30 30 30
25 26 27 28 29 30 30 30 32 31 30 29 29 29 28 28 27 26 25 24 24 23 22 22 21 19 19 18 17 17 18 18 18 19 20 22 25 26 29 31 31 30 31
27 28 28 29 30 29 29 30 31 31 31 29 30 30 29 29 29 28 27 26 25 25 24 23 22 20 19 18 18 17 17 17 17 18 19 20 22 24 26 29 31 32 32
32 31 31 31 31 32 31 31 31 32 32 31 31 31 31 30 30 30 29 28 28 27 26 25 23 22 21 20 19 18 17 17 17 18 18 19 20 23 24 26 28 31 32
38 36 34 34 35 34 34 34 34 35 34 34 33 33 33 33 32 32 32 31 30 29 28 27 25 24 23 21 20 19 18 18 17 18 18 18 19 21 22 24 26 28 29
43 42 41 39 40 40 39 39 39 38 38 37 37 36 36 35 35 35 35 34 33 32 31 29 28 26 25 23 21 20 19 18 18 18 18 18 19 21 22 23 25 27 29
48 48 46 45 44 44 44 44 43 43 42 42 41 40 39 38 38 38 38 37 36 36 34 33 31 29 27 25 23 22 21 20 19 19 19 19 20 21 22 23 24 26 28
52 52 51 51 50 50 49 49 49 48 47 46 45 45 44 43 42 41 41 40 39 39 38 37 35 33 31 28 26 24 23 22 20 20 20 20 20 21 22 22 23 25 27
54 54 55 55 55 55 55 55 54 54 53 52 51 50 49 47 46 45 45 43 42 41 41 40 38 36 34 32 29 27 25 23 22 21 20 20 20 21 21 22 23 23 25
54 55 56 57 58 59 60 60 60 60 59 57 56 55 53 52 51 50 49 47 46 44 44 43 42 40 37 34 33 30 28 26 24 23 22 21 21 21 22 22 23 23 23
53 54 54 56 58 60 62 63 64 64 64 63 61 60 59 58 56 54 52 51 50 48 46 45 44 43 40 38 36 33 31 28 26 25 24 22 22 22 22 23 24 24 24
52 53 53 54 55 58 60 62 64 67 68 68 67 65 64 63 61 60 58 56 54 52 51 49 47 46 44 41 39 36 33 31 29 27 25 24 23 23 22 23 23 23 24
51 52 52 53 53 55 56 58 61 64 67 68 69 69 69 68 67 65 63 60 58 56 55 53 51 49 47 44 42 39 36 33 31 29 27 25 24 23 23 23 23 23 23
51 51 51 52 53 54 55 55 57 59 61 64 67 68 69 70 70 69 67 65 63 60 58 56 54 51 49 47 44 41 39 36 33 31 29 27 25 24 24 23 23 23 23
50 50 50 51 51 53 54 54 55 56 58 60 62 65 67 69 71 71 70 68 67 64 62 60 57 54 51 49 46 44 41 38 36 33 30 28 27 25 24 24 23 23 23
47 47 47 48 49 51 52 53 54 54 55 57 58 59 62 65 69 70 71 71 70 67 65 64 61 56 53 50 48 46 43 41 38 35 32 30 28 26 24 23 22 22 22
45 45 45 46 46 47 49 50 52 53 53 54 55 55 57 59 62 66 69 70 70 69 68 66 63 60 55 52 50 47 45 43 40 37 34 31 29 27 25 23 22 21 21
40 40 41 42 44 44 45 47 48 49 50 50 50 51 52 54 55 59 63 67 68 68 68 66 64 61 58 55 52 49 46 44 42 39 35 32 30 28 26 25 23 22 21
35 36 36 38 39 40 41 43 44 44 45 46 47 47 47 49 52 53 57 61 64 66 67 67 65 63 60 56 53 50 47 45 42 39 36 33 31 29 27 25 24 23 23
30 31 31 33 33 35 37 38 39 39 39 40 41 42 42 43 46 48 50 54 57 60 63 66 66 64 60 57 54 51 47 45 43 39 36 33 31 29 27 26 25 23 22

GEFSMA_500_meanwind_078.txt.gz
Wind_Speed
35 35 35 36 35 35 35 33 32 30 29 28 27 26 26 26 26 25 23 21 22 22 21 22 22 21 21 21 20 19 19 19 18 19 19 18 17 17 17 16 15 15 14
38 37 37 38 37 38 37 35 34 32 30 29 28 26 27 27 27 25 24 23 22 22 22 22 22 22 22 21 21 20 20 20 20 21 21 20 20 19 19 19 18 17 17
40 38 38 38 38 39 37 35 33 33 31 31 29 28 27 26 28 27 26 24 23 23 23 22 22 22 22 22 21 21 21 20 21 22 23 22 21 20 21 20 20 19 18
40 39 38 37 37 36 36 34 32 33 33 32 30 29 28 28 27 26 27 26 25 24 24 23 22 23 23 22 21 21 21 21 21 22 23 23 23 22 22 22 22 21 20
39 38 37 37 37 36 36 34 33 32 32 33 32 30 30 29 27 27 27 26 26 24 23 23 22 22 22 22 21 20 20 20 20 21 21 23 24 24 23 23 23 23 23
37 36 35 36 35 34 34 33 31 30 31 32 32 30 29 29 28 28 28 27 26 24 23 23 22 22 21 21 20 19 18 18 19 19 20 20 22 23 24 24 24 24 25
37 35 34 33 33 33 32 33 31 29 30 31 31 30 30 29 29 29 27 27 26 24 24 22 22 22 22 21 20 19 18 18 18 18 18 19 19 21 22 23 24 25 25
37 36 34 33 33 33 32 32 31 30 30 31 31 31 30 30 30 29 29 28 28 26 24 23 23 22 22 21 20 19 19 18 17 17 17 17 17 19 20 22 23 24 25
38 37 37 37 36 35 34 32 31 30 30 30 31 32 32 31 29 29 29 30 29 28 27 26 24 23 22 22 21 20 19 18 17 17 16 16 16 17 17 20 21 22 24
40 40 40 39 37 36 36 34 34 33 31 31 32 33 33 32 31 30 30 30 30 30 29 27 26 25 24 23 22 21 20 19 18 17 16 16 15 16 17 18 20 20 22
42 41 41 40 40 39 37 36 35 35 34 34 33 33 33 35 34 32 31 31 30 31 30 29 28 27 25 24 22 21 21 20 19 18 16 16 15 15 16 17 18 19 20
45 44 43 42 42 41 41 40 39 38 37 37 36 35 35 36 36 35 34 32 31 32 32 32 30 29 27 25 24 24 23 21 19 18 17 16 16 15 15 16 16 17 18
47 47 47 46 45 44 44 44 43 42 41 40 40 39 38 37 38 36 35 35 34 33 33 33 32 31 29 28 26 26 24 22 20 20 18 17 16 15 15 15 15 15 17
48 49 49 48 47 47 47 47 47 46 45 44 43 43 42 40 39 39 38 37 37 35 35 34 34 33 31 29 29 28 26 24 23 21 19 18 17 16 16 15 15 16 16
49 50 50 49 49 48 48 48 49 49 49 49 47 47 46 44 43 43 42 40 39 37 36 37 36 36 35 32 31 30 29 27 25 23 21 20 19 17 17 17 16 16 17
48 49 50 50 49 49 48 49 50 51 51 51 51 50 49 49 47 46 46 44 42 41 40 39 39 38 37 35 34 33 31 29 28 26 24 23 21 19 18 18 18 18 18
48 49 49 49 49 48 48 48 49 50 51 52 53 53 53 53 53 51 49 47 45 44 43 41 41 40 39 38 37 36 35 32 31 29 27 25 24 22 20 19 19 19 18
50 50 51 51 51 51 50 49 50 51 52 52 53 54 55 56 56 55 53 51 49 47 46 45 42 42 42 40 39 38 37 36 34 32 30 28 27 24 22 21 20 20 19
50 51 52 52 52 52 52 52 52 52 53 54 54 55 56 57 58 58 57 55 53 52 50 48 47 46 44 42 41 40 39 38 37 35 33 32 29 27 25 23 22 21 21
49 49 49 50 50 52 52 52 52 52 52 54 56 56 57 57 58 60 59 58 56 55 54 52 51 49 48 46 44 42 41 40 39 38 36 34 32 30 27 26 24 23 22
47 47 47 47 47 48 49 50 51 51 51 52 53 55 57 57 58 59 60 60 59 57 56 55 54 53 51 49 46 44 44 43 41 39 38 37 35 32 30 28 26 25 23
45 44 44 44 45 45 46 47 48 49 50 50 50 52 53 56 57 57 59 60 61 61 59 58 55 55 54 51 49 48 46 44 42 41 40 38 37 35 33 30 28 26 25
41 41 41 41 41 41 41 42 44 46 47 48 50 51 51 53 54 55 56 58 60 60 60 60 58 56 55 54 52 50 48 46 43 42 41 40 38 36 34 32 29 28 26
38 37 37 36 36 36 37 38 39 42 43 45 47 49 50 51 52 53 54 54 56 57 59 60 58 57 57 56 54 52 49 48 47 44 42 40 39 37 36 34 31 29 27
35 34 33 32 31 32 33 34 35 37 39 40 41 44 46 47 49 51 52 53 54 54 55 57 58 57 57 57 56 53 51 49 47 44 42 41 40 38 37 35 33 31 29
33 31 30 29 29 29 30 31 32 33 35 36 38 40 43 45 46 47 49 51 51 51 52 53 54 56 56 57 56 53 52 50 48 44 42 40 39 39 37 36 34 32 29

GEFSMA_500_meanwind_084.txt.gz
Wind_Speed
30 30 30 29 28 28 28 28 28 27 26 26 27 27 27 27 27 26 25 24 23 23 23 24 23 22 21 20 20 19 17 16 15 15 15 15 14 14 13 13 12 12 12
32 32 32 31 30 30 29 29 28 28 28 27 27 29 29 28 28 28 28 27 25 24 23 24 24 23 23 22 21 21 20 19 17 17 17 17 17 16 16 15 15 14 14
33 33 32 32 31 30 30 29 29 28 28 28 27 28 30 30 30 30 28 28 28 27 25 24 25 25 24 24 23 22 22 21 20 18 18 18 18 18 18 17 17 17 16
33 33 32 32 32 32 31 31 29 29 28 29 28 27 28 31 30 30 30 29 29 28 27 26 26 26 26 25 24 23 23 22 21 20 20 19 19 20 20 19 19 19 18
34 33 32 32 33 32 31 29 29 29 28 29 29 27 28 30 31 31 31 30 31 30 28 27 28 27 27 26 25 24 24 24 23 21 21 20 20 21 21 21 20 20 20
35 35 34 32 32 31 31 30 29 29 28 29 29 27 27 29 31 31 31 31 31 30 28 29 28 28 28 27 26 26 26 25 24 22 22 21 21 21 22 22 21 20 20
36 36 35 33 32 32 31 31 31 30 30 29 29 28 27 28 30 31 31 31 31 30 30 28 29 29 29 28 28 27 27 26 24 23 22 21 22 22 22 22 22 22 22
37 37 35 34 34 33 32 32 31 31 31 31 30 29 28 28 29 30 31 31 30 30 29 28 29 29 30 29 28 28 27 26 25 24 23 22 21 22 22 22 22 22 22
37 36 36 36 35 35 34 33 32 32 32 32 32 31 29 29 29 29 30 31 31 30 30 30 30 30 30 30 30 29 28 27 26 25 24 22 21 20 20 21 21 21 21
38 39 38 38 37 36 35 34 33 33 32 32 31 31 30 29 29 30 31 31 30 30 30 31 30 30 30 30 31 30 29 27 26 25 24 23 21 20 19 19 20 20 20
39 39 39 39 38 38 37 37 36 35 34 34 33 33 32 32 31 31 32 32 31 31 32 32 32 31 31 32 31 31 30 28 27 26 25 24 22 21 20 19 18 18 19
40 39 39 38 38 38 37 37 37 36 36 35 35 35 35 34 34 33 33 33 33 33 34 33 33 33 33 34 32 31 30 29 28 28 27 25 23 21 20 19 18 18 17
39 39 38 37 37 37 38 38 38 38 38 37 36 36 37 37 37 37 35 35 35 34 34 34 34 34 34 34 34 33 31 30 29 28 27 26 24 22 21 19 18 18 17
39 39 39 39 38 38 38 39 39 39 39 39 39 38 39 38 39 39 38 37 37 37 36 36 36 35 36 36 36 35 33 32 31 30 28 27 25 24 22 20 18 17 16
39 39 40 40 39 39 39 39 39 40 40 40 41 41 41 41 41 41 40 39 39 39 39 39 38 38 38 38 39 37 36 35 33 31 30 28 27 25 23 21 19 18 16
41 41 41 42 42 42 41 40 40 41 41 41 41 42 43 44 43 44 44 42 42 41 41 40 39 39 39 39 39 38 38 37 36 34 32 30 29 27 25 23 21 19 18
42 43 43 43 43 43 43 43 43 43 42 42 43 43 44 45 46 46 46 46 45 45 43 42 40 40 41 41 41 40 39 38 38 37 35 33 31 28 26 24 22 20 19
41 42 42 43 43 44 44 45 45 44 44 44 45 45 45 46 47 47 48 48 49 48 46 46 44 42 42 42 42 42 41 41 40 39 37 35 33 30 28 26 24 22 20
41 42 43 44 44 44 45 45 45 46 45 45 46 47 47 49 49 49 51 51 52 51 50 49 47 45 43 44 44 43 43 43 42 41 40 38 36 33 31 28 26 24 22
42 42 43 43 43 43 43 43 44 44 45 45 46 47 49 50 51 52 52 53 54 54 53 52 49 49 47 45 45 45 45 45 44 43 42 40 38 36 33 31 29 26 24
41 41 41 40 40 40 40 41 41 42 43 44 45 47 49 50 51 53 54 55 56 57 56 55 53 52 51 50 47 47 46 46 45 45 44 42 40 38 35 33 31 29 27
40 39 39 38 37 37 37 37 38 39 41 42 44 46 49 50 51 53 55 56 56 58 58 57 56 54 54 51 50 50 49 48 46 44 44 43 41 40 38 36 33 31 29
38 37 37 36 35 34 34 34 36 36 38 40 42 44 46 50 51 53 55 56 57 58 59 58 59 57 56 54 53 53 53 50 47 46 45 43 42 41 39 38 36 34 32
36 35 34 34 33 32 33 33 34 33 34 36 39 41 44 47 49 51 53 55 57 59 60 60 60 60 59 58 56 54 53 53 51 49 47 45 43 41 40 38 37 36 34
36 35 34 33 31 31 31 31 31 31 31 32 35 38 41 45 48 50 51 53 55 58 60 61 61 61 60 59 59 56 54 54 53 50 48 46 44 43 41 40 38 36 35
34 33 32 32 30 29 28 28 27 27 28 29 31 34 37 42 46 48 49 50 52 54 57 59 60 60 61 60 58 58 55 55 54 52 50 48 47 45 43 41 40 38 36

GEFSMA_500_meanwind_090.txt.gz
Wind_Speed
26 25 26 26 27 27 28 28 28 27 27 27 27 26 25 23 24 26 27 26 25 24 24 24 23 23 23 23 22 22 21 19 18 18 17 16 15 14 13 13 12 11 10
26 27 28 28 28 29 28 28 28 28 29 28 28 28 27 26 25 26 28 28 28 27 26 26 26 25 26 25 25 24 23 22 21 20 19 18 17 16 16 15 14 13 12
28 29 29 28 29 29 29 29 28 29 29 28 29 29 29 28 27 27 28 29 29 29 28 27 27 28 28 28 27 27 25 24 24 22 21 20 19 18 18 17 16 15 14
28 29 30 30 29 28 28 29 28 29 29 29 29 28 28 27 27 27 29 30 30 30 31 30 29 30 29 29 30 29 27 26 26 25 23 22 21 21 19 19 18 18 17
30 31 31 31 31 31 30 30 29 29 29 29 28 28 27 27 27 27 29 31 32 32 32 32 31 31 31 30 31 31 30 28 28 27 26 24 23 22 21 20 20 19 19
32 32 33 33 33 33 32 32 32 30 30 29 29 28 28 29 29 28 29 30 32 33 33 33 33 32 32 32 32 32 32 30 29 29 27 26 25 23 23 22 22 21 20
33 33 33 34 34 34 33 33 32 31 31 30 30 29 29 29 30 31 30 30 31 33 35 34 34 34 34 34 34 34 33 33 30 30 29 28 26 25 24 23 23 23 22
33 34 34 34 34 34 34 34 33 33 32 33 32 31 31 31 31 31 31 31 31 33 35 35 35 35 35 35 35 35 35 34 32 31 30 29 28 26 25 24 23 23 23
34 35 35 35 35 35 35 35 35 35 34 35 34 33 32 32 32 32 32 33 33 33 34 36 37 37 37 36 36 35 35 36 34 32 31 30 29 28 26 25 24 24 24
35 36 36 36 36 36 37 37 37 36 36 36 36 35 34 33 34 33 33 34 35 34 34 35 36 37 38 37 37 36 36 36 35 34 32 31 30 28 27 26 25 25 25
36 36 36 37 37 37 37 38 38 38 37 37 37 37 36 36 36 35 34 34 36 36 35 35 36 36 38 37 37 37 37 37 36 34 33 32 30 29 27 26 25 24 24
36 36 36 36 36 36 36 36 36 37 37 37 38 39 38 38 37 37 35 35 36 37 37 36 36 36 38 38 38 38 39 39 37 36 34 33 31 30 28 26 25 24 23
36 36 36 35 35 35 35 36 36 37 37 37 38 40 40 40 40 39 37 37 37 37 38 39 37 38 39 39 39 38 39 40 39 37 36 34 32 31 29 27 26 24 23
35 35 35 35 35 35 36 36 36 37 38 38 38 39 40 40 41 41 40 40 39 39 39 40 40 39 39 40 40 40 40 40 39 39 37 35 34 32 31 29 27 25 24
34 35 35 36 36 36 36 36 37 37 38 39 39 40 41 42 42 42 42 42 41 42 41 41 42 41 41 41 41 41 41 41 40 39 38 37 35 33 32 30 28 26 25
35 36 36 36 36 36 36 36 37 37 38 39 40 40 41 43 44 44 44 43 43 43 43 42 43 43 42 42 43 43 42 42 41 40 39 38 36 35 33 31 30 28 26
35 35 35 35 35 35 36 37 37 38 38 39 41 42 43 44 44 44 45 46 46 45 45 45 45 44 45 45 45 44 43 43 43 41 40 39 38 36 34 33 32 30 28
35 35 35 35 35 36 36 37 38 39 40 41 42 43 44 45 46 46 46 47 48 48 47 46 47 46 46 46 46 46 45 44 43 43 42 41 40 38 36 35 33 31 29
36 36 35 35 35 36 37 37 38 39 40 41 42 43 44 45 47 48 48 48 49 50 50 48 48 48 48 48 47 47 47 46 46 45 44 43 41 40 38 37 35 33 31
36 36 35 35 36 36 37 37 38 38 38 39 40 41 43 45 46 48 50 50 50 51 51 50 50 49 49 49 49 49 49 48 47 47 46 45 44 43 41 39 37 35 33
37 36 36 36 36 36 36 36 36 36 36 37 38 40 42 44 45 47 49 51 52 52 52 53 52 52 52 51 51 51 50 49 49 49 48 46 45 44 43 41 39 37 35
38 37 36 36 35 35 35 35 34 34 34 35 37 39 41 43 44 46 48 50 53 54 54 54 53 54 54 53 52 52 51 51 50 49 49 49 48 46 45 44 42 40 37
39 37 36 35 35 34 34 33 33 32 32 33 35 37 39 41 43 45 48 50 52 54 56 56 55 56 57 56 55 53 52 51 50 50 51 51 50 49 47 46 45 42 40
38 37 36 35 34 33 33 32 31 30 31 31 32 34 36 39 42 45 47 50 52 54 56 57 56 57 58 58 57 55 54 53 52 52 52 52 51 50 49 48 46 44 42
37 36 35 34 33 32 32 31 30 29 29 29 30 30 33 36 39 43 46 48 50 53 56 58 57 58 59 60 59 57 56 54 53 54 53 52 52 52 51 50 48 46 44
36 35 34 34 32 32 31 30 29 28 28 28 29 30 31 34 37 40 43 46 49 51 54 57 58 58 59 60 61 60 58 56 54 54 54 53 52 53 52 52 51 49 46

GEFSMA_500_meanwind_096.txt.gz
Wind_Speed
25 25 27 26 25 25 24 24 23 23 23 23 23 22 23 22 23 23 24 26 27 28 28 28 27 26 25 24 24 23 22 21 20 19 18 17 16 15 15 14 14 13 12
25 26 26 26 25 25 24 24 24 24 25 25 24 23 23 24 25 25 25 26 27 29 30 30 29 29 28 27 27 25 24 23 22 21 20 19 18 17 16 16 15 14 13
24 24 24 24 24 24 25 25 25 25 25 25 25 26 26 25 26 26 27 27 27 30 32 32 32 32 31 30 29 28 27 26 25 24 22 21 21 20 19 18 17 16 15
25 25 26 26 26 26 26 26 27 27 26 25 25 26 27 27 27 27 28 29 29 29 32 33 33 33 33 32 32 31 30 29 28 26 25 24 23 22 21 20 19 18 17
25 26 27 28 29 29 28 29 29 28 28 28 27 28 28 28 28 28 28 29 30 31 32 34 35 35 34 33 34 34 33 32 31 30 28 27 26 24 23 22 21 20 19
24 26 27 28 30 31 31 31 31 31 31 30 30 30 30 30 30 30 30 30 30 32 33 34 35 36 36 35 35 36 35 36 35 33 31 30 28 27 25 24 23 22 21
26 26 27 28 29 31 31 32 32 32 33 33 33 32 32 33 32 32 31 31 30 32 33 34 35 36 37 37 37 37 37 37 36 36 35 33 31 29 28 26 25 24 23
27 27 28 29 29 30 31 32 33 33 33 34 34 33 34 34 34 33 33 33 33 33 34 34 37 37 37 38 37 38 38 39 37 37 37 36 34 32 30 29 27 26 25
28 28 29 30 30 31 31 32 32 33 34 34 34 34 35 35 35 35 35 35 35 35 35 36 37 38 39 38 38 39 39 39 38 37 38 38 36 34 33 31 30 28 27
29 29 30 30 30 31 31 32 32 33 34 35 35 36 36 36 37 36 36 37 38 37 37 38 38 39 40 39 39 39 39 40 39 39 39 39 38 36 34 33 32 30 28
30 30 30 30 30 31 31 32 32 33 34 35 36 36 37 37 38 38 38 39 39 39 39 39 39 40 41 41 40 41 40 40 40 40 40 39 39 38 36 35 33 31 30
30 30 30 31 31 31 32 32 33 34 35 35 36 36 37 38 39 40 40 40 40 40 41 41 40 40 41 42 42 42 43 42 41 42 42 41 41 40 38 36 35 33 32
30 30 31 31 31 31 32 33 33 34 35 36 37 37 38 39 40 40 41 41 41 41 42 42 42 42 42 44 43 43 44 44 43 43 43 42 42 41 40 38 36 34 33
30 30 30 30 31 32 33 34 34 34 35 36 37 38 39 39 40 41 41 42 43 42 43 43 43 43 43 44 44 45 44 45 45 45 44 43 42 41 40 39 36 35 33
29 30 30 31 31 32 32 33 34 34 35 36 37 38 39 40 41 42 42 42 43 44 44 44 44 44 44 45 45 45 46 45 46 46 46 45 43 42 41 39 37 35 33
29 28 29 30 30 31 32 32 33 33 34 35 36 37 38 39 40 41 42 43 44 44 45 45 45 45 45 46 46 46 46 45 46 46 46 46 45 43 42 41 39 37 35
28 29 29 30 31 32 33 33 34 34 34 34 35 36 37 38 40 41 42 42 43 44 45 46 47 47 46 46 47 46 46 46 46 47 47 47 46 45 44 42 40 38 36
30 30 30 31 32 33 33 33 33 34 34 35 35 36 37 38 40 41 42 43 44 44 45 45 47 48 48 46 46 48 47 47 47 47 48 48 47 46 45 43 42 40 38
31 32 32 33 33 33 33 33 33 33 34 35 36 37 38 39 40 42 43 44 45 46 46 46 46 47 49 48 48 48 48 48 47 47 47 48 47 47 46 45 43 42 40
33 34 35 35 34 34 33 33 33 33 34 35 35 36 37 39 40 42 43 44 46 47 47 47 47 48 50 50 50 50 49 48 48 48 48 48 47 47 47 47 45 44 42
35 36 36 36 35 34 33 32 32 33 33 34 34 35 37 38 39 40 42 43 45 46 47 47 48 48 50 51 51 51 51 50 49 49 50 50 49 48 48 48 46 45 43
37 37 37 36 34 34 33 32 32 32 32 33 34 35 36 36 37 38 39 41 43 45 46 47 48 49 50 51 52 52 52 51 50 49 50 51 51 50 49 49 48 46 44
39 38 37 35 34 33 33 32 32 31 31 32 32 33 33 34 35 36 38 40 41 43 45 47 48 48 50 52 52 54 54 52 51 49 49 51 51 51 51 49 49 47 45
39 38 36 35 34 34 33 32 31 31 31 30 30 31 32 33 34 35 37 38 40 42 44 45 47 48 50 52 53 54 55 53 51 49 49 50 52 52 52 51 49 48 47
39 38 37 35 35 34 33 32 31 29 29 29 29 30 30 32 34 35 35 37 38 41 43 45 46 48 50 53 54 54 54 55 52 51 50 49 51 52 52 52 51 49 48
39 37 36 35 35 33 32 31 30 29 29 29 29 30 30 31 32 33 34 36 37 39 41 43 45 47 49 52 54 55 54 55 55 53 52 49 49 51 52 52 52 51 49

GEFSMA_500_meanwind_102.txt.gz
Wind_Speed
22 22 23 23 22 22 22 23 23 23 23 23 22 22 22 22 23 22 20 21 22 22 24 23 22 22 22 21 20 19 19 18 17 16 15 14 13 13 12 11 11 10 9
19 20 20 21 21 21 21 22 23 23 24 23 23 23 23 23 24 24 23 22 23 24 24 25 25 25 25 24 24 23 22 20 19 18 18 16 15 14 14 13 12 12 11
19 19 19 21 22 22 22 23 24 24 24 24 24 23 24 24 23 24 24 23 23 24 25 26 28 27 27 27 26 26 25 23 22 21 20 19 18 17 16 15 14 14 13
18 19 20 21 21 21 22 22 23 23 24 25 25 25 25 24 25 25 25 25 24 25 26 27 28 29 30 29 29 28 28 26 25 24 23 22 20 19 18 17 16 15 15
19 20 20 21 22 22 23 23 23 24 25 26 26 26 26 26 26 26 26 27 27 26 27 28 28 29 31 32 31 30 30 30 28 27 26 25 23 22 21 19 18 17 17
20 20 21 21 23 24 24 25 26 26 27 28 29 29 28 28 28 28 28 28 28 28 28 28 29 29 30 32 33 32 32 32 31 30 29 28 27 25 24 22 21 20 19
21 21 22 23 24 25 26 27 27 27 28 29 30 30 30 30 30 29 29 30 30 30 30 29 29 29 30 31 32 33 34 34 33 33 31 30 29 28 27 25 24 23 22
21 22 22 23 25 26 26 27 28 28 29 30 30 30 31 31 32 31 31 31 31 31 31 31 30 30 30 31 31 33 34 35 35 35 34 34 33 32 30 28 27 25 24
22 23 24 24 25 26 27 27 27 28 29 29 30 30 30 31 32 32 33 33 33 33 32 33 32 31 31 31 32 33 35 36 36 36 36 35 35 34 34 32 30 28 27
23 24 24 25 25 26 26 26 26 27 28 29 30 30 30 31 32 32 33 33 33 33 34 34 33 33 33 33 33 34 36 37 37 36 36 37 37 36 36 35 33 31 29
24 24 24 25 25 26 26 26 26 27 28 29 30 31 31 32 32 33 34 35 35 34 35 35 35 35 34 34 34 35 37 38 38 37 38 37 37 38 37 36 36 34 32
24 24 24 25 25 26 26 26 27 28 29 29 30 31 32 32 33 34 35 35 36 36 36 36 36 36 36 36 36 36 37 38 39 39 39 38 38 39 39 38 38 37 35
24 24 25 25 26 26 26 27 27 28 28 29 30 31 32 33 34 35 35 36 37 37 37 37 37 38 38 38 37 38 38 38 39 39 39 40 39 39 40 39 39 38 37
25 26 26 26 27 27 27 27 27 27 28 29 30 31 31 32 34 35 36 36 37 38 39 38 38 38 39 40 39 40 40 40 40 40 40 40 41 40 39 40 40 40 38
26 26 27 27 27 28 28 28 28 29 29 30 31 32 33 33 34 35 36 37 38 38 39 39 39 39 39 39 40 40 41 40 41 41 41 42 42 41 40 39 40 41 40
28 28 29 29 29 29 30 30 31 31 32 33 33 33 34 34 35 35 36 37 37 38 38 39 40 41 40 39 40 41 41 41 41 42 42 43 43 43 42 41 40 40 41
28 29 30 30 31 31 32 33 34 34 34 35 35 35 35 35 36 36 36 37 37 37 38 39 40 41 41 41 40 40 41 42 42 42 42 43 43 44 43 42 41 40 41
29 30 31 32 32 33 33 34 35 36 36 36 36 36 36 36 37 37 37 36 36 37 38 38 40 40 41 42 41 41 42 42 43 43 42 43 44 44 44 43 41 41 41
31 32 33 34 35 35 35 36 36 37 36 36 35 35 35 36 36 36 37 36 36 37 38 38 40 41 42 41 41 42 42 43 42 42 43 43 44 44 44 44 43 42 42
33 34 35 37 37 37 37 37 37 36 35 35 34 34 34 34 35 35 35 36 37 37 38 38 39 41 43 43 43 42 43 44 43 43 43 43 44 45 45 45 44 43 42
35 36 37 38 39 39 39 38 37 35 34 33 33 33 34 34 34 35 35 36 36 36 38 38 39 40 42 44 44 43 42 44 45 44 44 44 44 45 46 45 45 44 43
37 38 39 40 41 40 40 38 37 35 34 33 33 33 33 33 34 34 35 36 36 37 37 38 39 39 41 43 44 45 44 43 44 45 46 45 44 45 47 46 46 45 45
39 40 41 42 42 41 40 39 37 36 34 34 33 32 31 32 32 33 34 35 36 36 37 37 38 38 40 42 44 45 45 45 44 44 45 46 46 45 46 46 46 46 46
41 42 42 43 43 42 40 38 36 35 34 33 32 31 31 31 32 32 33 33 34 35 36 37 37 37 39 40 42 44 45 45 45 45 46 46 47 45 45 45 46 46 47
42 43 43 43 43 42 40 38 36 34 33 32 31 30 30 31 31 31 32 33 34 35 36 36 37 37 38 39 41 43 44 45 45 45 45 46 47 47 47 45 45 46 47
43 44 44 44 43 41 39 37 35 34 33 32 31 30 30 30 30 30 31 32 33 34 35 36 37 37 38 39 40 41 44 45 45 45 46 46 47 48 48 47 47 46 48

GEFSMA_500_meanwind_108.txt.gz
Wind_Speed
13 13 13 14 15 16 16 16 17 18 19 21 21 20 19 19 19 19 19 18 18 18 18 18 18 19 19 19 18 17 16 16 15 14 14 13 13 12 12 11 10 10 9
11 13 13 14 13 14 15 16 17 18 19 21 22 22 22 21 21 20 20 21 20 20 19 19 20 21 21 21 20 20 19 18 18 17 16 15 15 14 13 13 12 11 11
10 11 13 14 14 15 15 16 17 18 18 19 20 22 23 23 24 23 21 22 22 22 22 21 21 22 23 23 23 22 22 21 20 20 19 18 17 16 15 15 14 14 13
10 11 13 14 15 16 17 17 18 18 19 19 20 21 22 23 24 24 23 23 23 24 24 23 23 24 24 25 25 24 24 24 23 22 21 21 20 19 18 17 16 16 15
11 12 13 15 16 17 18 19 19 19 20 20 21 21 22 23 23 24 24 24 24 25 25 25 24 24 25 26 27 27 26 26 26 25 25 24 23 22 21 20 19 18 18
12 12 13 15 16 17 18 18 19 19 20 22 22 23 23 24 25 25 25 25 26 26 26 27 26 25 26 27 28 29 29 29 29 29 28 27 26 25 24 22 21 21 20
12 12 13 13 15 16 17 17 19 20 21 22 23 24 24 25 26 27 27 27 28 28 28 29 29 28 27 27 28 30 30 31 32 31 31 30 29 28 27 25 24 23 22
11 12 12 13 14 15 16 17 18 20 21 22 23 24 25 26 26 27 29 29 29 30 30 30 31 30 31 30 29 30 31 32 34 34 34 33 32 31 30 29 27 26 25
11 12 12 13 14 14 15 16 17 18 20 21 22 23 24 26 27 27 28 29 30 30 31 31 32 32 33 33 32 31 32 33 33 35 36 36 35 34 33 32 31 29 28
11 12 13 13 14 15 16 16 17 18 19 21 22 23 24 25 26 28 29 30 30 31 31 32 33 34 34 34 34 34 33 34 35 34 35 37 37 37 36 35 34 32 30
11 13 13 14 15 16 17 17 18 19 19 20 21 23 24 25 26 28 29 30 31 32 32 32 33 34 35 36 36 36 36 35 36 36 36 37 38 39 38 37 36 35 34
13 13 14 15 16 17 18 18 19 20 21 21 22 23 24 25 27 28 29 30 31 32 33 34 35 35 35 36 37 38 37 37 38 39 37 38 39 39 39 39 38 37 36
14 15 15 16 17 18 19 19 20 21 22 22 23 24 25 25 26 28 29 30 32 33 34 35 36 37 37 38 39 39 39 39 39 39 39 38 38 39 40 39 39 39 38
16 16 17 18 19 20 21 21 22 23 23 24 24 25 25 26 27 28 29 30 32 33 35 36 37 38 39 39 39 39 40 40 41 41 41 40 40 40 41 40 40 40 40
17 19 20 21 21 22 23 24 24 25 25 25 26 26 27 27 28 29 30 31 32 33 34 36 37 38 40 40 40 40 40 41 42 42 43 43 42 42 42 43 42 41 41
20 21 22 23 24 24 25 26 26 27 28 28 28 29 29 30 31 32 33 33 34 34 35 37 38 39 39 40 41 42 42 42 43 44 44 45 44 44 44 44 44 43 42
22 23 24 25 26 27 27 28 29 30 30 30 31 31 32 33 33 34 34 35 35 36 36 37 39 40 40 41 42 43 44 44 45 45 45 46 45 45 45 45 45 44 43
24 25 26 28 28 29 30 31 32 32 33 33 34 34 34 35 34 35 35 35 35 36 36 37 39 40 41 41 42 43 44 45 45 46 47 47 47 46 47 46 46 45 45
26 27 29 30 31 32 32 33 34 35 36 36 36 36 36 35 35 35 34 34 35 35 35 36 37 39 40 41 42 43 44 45 46 46 46 47 47 48 48 48 47 46 47
28 29 31 32 33 33 34 35 36 37 37 37 37 37 36 35 34 34 34 34 35 35 35 35 35 38 39 40 41 42 43 44 45 46 47 47 48 48 48 48 48 47 47
29 31 32 33 34 35 35 36 37 38 38 38 37 36 35 34 33 33 33 33 34 34 35 35 35 36 39 40 41 42 42 44 45 46 46 47 48 48 48 48 48 49 49
31 32 33 35 35 36 37 38 39 39 38 37 36 35 34 33 32 32 32 32 32 33 34 35 35 36 38 40 41 42 42 43 44 46 47 48 48 49 49 49 48 48 49
33 33 35 36 37 38 39 39 40 39 38 37 36 35 34 33 32 31 31 31 32 32 34 35 35 36 37 39 40 42 43 44 44 46 47 47 48 48 49 49 49 48 47
34 35 36 38 39 39 40 40 40 39 38 37 36 35 33 32 31 30 29 29 31 32 33 34 35 36 37 38 39 40 42 43 43 45 47 48 48 48 49 50 49 49 48
35 36 38 39 39 40 41 41 40 40 38 37 35 34 32 31 30 29 29 29 30 31 32 33 34 34 36 37 38 39 40 42 42 44 46 47 48 48 48 49 50 50 49
36 38 39 40 41 41 42 42 41 40 38 36 35 33 31 30 29 29 29 29 30 31 32 32 32 33 35 36 38 39 40 41 42 43 46 46 47 48 48 49 51 51 50

GEFSMA_500_meanwind_114.txt.gz
Wind_Speed
11 12 13 14 15 15 15 15 16 16 16 16 15 15 16 17 18 18 17 17 17 17 17 16 16 17 18 18 19 19 18 17 16 16 15 14 14 13 12 11 10 9 9
11 12 12 13 13 14 14 15 16 16 16 16 16 16 16 18 18 18 19 19 19 19 19 19 19 19 20 20 21 21 21 20 19 19 18 17 16 15 14 13 12 11 10
11 12 12 12 12 13 14 15 15 16 16 17 17 17 18 18 19 20 21 20 20 20 20 21 21 21 22 22 23 23 24 23 22 21 21 19 18 17 16 15 14 14 12
11 12 12 13 13 14 15 16 16 17 17 17 18 19 19 20 20 21 22 22 22 22 22 23 23 23 24 24 25 26 26 26 26 24 23 22 21 20 19 18 17 16 15
11 11 12 13 14 14 14 15 16 17 18 18 19 20 20 21 21 21 23 23 23 24 24 24 25 25 26 26 26 27 27 28 28 28 27 25 24 23 21 20 20 19 18
10 11 12 12 13 14 14 15 16 17 18 19 19 20 20 21 21 22 22 23 24 24 25 25 26 26 27 27 28 28 29 29 30 30 30 28 27 26 25 24 23 22 20
9 10 10 11 12 12 13 14 15 16 17 18 19 20 20 21 22 23 23 24 24 25 25 26 26 27 28 29 29 29 29 30 31 32 32 31 30 29 28 27 26 24 23
7 8 9 10 11 12 13 14 15 16 16 17 18 19 20 21 22 23 24 25 25 26 27 27 27 28 29 29 30 30 31 31 31 33 34 34 33 33 31 30 29 28 26
6 7 8 9 10 10 12 13 14 15 16 16 17 19 20 21 22 23 24 25 26 27 28 29 29 30 30 31 31 31 32 32 33 34 34 35 35 35 34 34 32 31 29
6 7 8 8 9 10 12 13 13 15 16 17 18 19 20 21 22 23 24 25 26 28 28 29 30 31 32 33 33 34 34 34 34 34 35 35 37 37 37 36 36 35 33
6 7 8 9 11 12 13 13 14 15 16 17 18 19 20 20 22 23 24 25 26 27 28 30 31 32 33 34 35 35 36 36 36 36 35 36 37 38 39 39 38 37 36
7 8 9 11 12 13 14 15 16 16 17 18 19 20 20 21 22 23 24 25 26 27 29 30 32 33 34 35 36 37 37 38 38 38 38 38 38 39 39 40 40 40 38
7 9 11 12 14 15 16 16 17 18 19 20 20 21 21 22 23 23 24 25 27 28 29 31 32 33 34 35 37 38 39 39 39 39 40 40 40 40 40 40 40 41 41
8 10 12 14 15 16 18 18 19 20 20 21 22 23 23 24 25 25 26 26 27 28 30 31 32 34 35 36 37 39 39 40 41 41 41 42 42 41 41 41 41 41 42
10 12 14 16 17 18 19 20 21 21 22 23 24 25 26 26 27 27 28 28 28 29 30 32 33 34 35 36 38 39 40 41 42 42 42 42 43 43 43 43 42 42 42
13 15 16 17 19 20 21 22 23 23 24 24 25 26 27 27 27 28 29 30 30 31 31 33 34 36 36 37 39 40 41 42 42 43 44 44 43 43 44 45 45 44 43
15 16 18 19 20 21 22 23 24 25 26 26 27 27 28 28 28 29 30 30 31 32 32 33 35 37 38 39 40 41 42 43 44 44 45 46 46 45 45 46 47 47 45
16 17 19 21 22 23 24 25 26 27 27 28 29 29 30 30 30 31 31 31 32 32 32 33 35 37 39 40 40 41 43 44 44 45 45 46 47 48 47 47 48 49 48
18 19 21 23 24 24 26 26 28 29 29 30 31 31 31 32 32 33 33 33 34 34 33 33 34 37 39 41 41 42 43 44 45 46 46 47 48 49 49 48 48 49 49
20 22 23 25 26 26 28 28 29 30 31 32 32 33 33 33 34 35 35 35 35 35 35 34 34 35 37 39 40 41 42 43 45 46 46 47 48 49 50 49 49 49 50
23 25 26 27 28 29 30 30 31 32 33 34 34 34 35 35 36 36 36 36 35 35 35 34 34 34 36 38 39 40 41 42 43 44 45 46 48 49 50 51 50 50 50
25 27 27 28 29 30 31 32 33 33 34 35 35 36 36 37 37 37 37 36 35 35 34 34 34 34 34 36 38 39 39 40 41 44 45 46 47 48 50 51 51 52 51
27 28 29 30 31 32 33 34 34 35 36 36 37 37 38 38 37 37 37 36 35 34 34 33 33 33 34 35 36 38 39 40 41 43 45 45 47 48 49 50 51 52 52
29 30 31 32 33 34 35 35 36 37 37 37 38 38 38 38 38 37 36 35 35 34 34 33 33 33 33 34 35 36 37 39 40 42 44 44 47 48 48 49 51 52 52
31 32 33 34 35 35 36 37 38 38 39 39 39 39 39 38 38 38 36 35 34 34 33 32 32 32 33 34 35 36 37 38 39 41 43 44 45 48 48 48 49 51 52
32 33 34 35 36 37 38 39 39 40 40 40 41 41 40 39 38 38 37 36 34 34 34 33 32 32 33 34 35 36 37 37 38 40 42 43 44 47 47 48 48 50 51

GEFSMA_500_meanwind_120.txt.gz
Wind_Speed
8 8 8 8 8 9 9 9 9 10 11 11 12 12 13 15 15 15 15 16 16 16 17 17 17 17 16 16 17 18 18 17 16 16 15 15 14 13 13 12 11 10 9
7 7 7 8 8 7 8 8 9 10 10 11 12 12 14 14 15 16 17 16 17 18 19 19 19 19 19 19 19 19 20 20 19 18 18 17 16 15 15 14 13 12 11
7 7 7 8 8 8 8 8 9 9 10 10 11 12 12 13 14 16 17 18 18 19 19 19 20 20 21 21 21 21 22 22 22 21 20 20 19 18 17 16 15 14 13
7 7 8 8 8 9 10 9 9 9 9 10 11 12 12 13 13 15 16 18 18 19 20 21 21 21 22 23 24 23 24 24 24 24 23 23 22 21 20 19 18 17 16
7 7 8 7 8 8 8 9 9 9 10 11 11 12 13 13 14 15 16 17 18 19 20 21 22 23 23 24 25 25 26 27 27 26 26 26 25 25 23 22 21 20 19
6 6 6 6 6 6 6 7 8 9 10 10 11 11 13 14 15 16 17 18 19 20 21 22 23 24 25 25 26 27 27 28 29 29 29 29 29 28 27 26 24 23 22
4 4 5 5 5 6 6 7 7 8 9 10 11 12 13 14 15 15 17 18 20 21 22 23 24 25 26 26 27 28 29 29 29 30 31 31 31 31 31 29 28 26 25
2 2 3 3 3 4 5 6 8 8 9 10 11 12 13 14 15 16 16 18 19 21 22 23 24 25 26 27 28 29 30 31 30 31 32 33 33 32 34 33 32 30 29
2 2 1 1 2 3 5 6 7 8 9 10 11 12 13 14 15 15 16 17 18 20 21 23 24 26 27 28 28 29 30 31 32 32 33 34 34 34 34 36 35 34 32
2 1 1 1 2 4 5 6 7 8 9 10 11 12 14 15 15 16 17 18 18 19 21 22 24 26 27 29 30 30 31 31 32 33 34 35 35 35 35 36 37 37 36
2 2 2 2 3 5 6 7 8 9 10 11 12 13 14 15 16 17 18 19 20 21 21 23 25 26 28 29 30 31 32 33 33 34 35 36 36 36 36 37 38 39 39
1 1 2 3 4 6 7 8 9 10 11 12 13 14 16 16 17 18 19 21 22 23 23 25 26 26 28 29 30 30 32 33 34 35 36 37 37 37 37 37 37 39 40
2 3 4 5 6 8 9 10 11 12 13 14 14 15 17 18 19 19 20 21 22 24 25 26 27 28 29 30 31 31 33 34 35 36 37 38 38 38 38 38 38 39 40
4 4 5 6 8 9 10 11 12 13 14 15 16 17 18 19 20 20 21 22 23 24 25 26 27 28 29 31 32 33 34 35 36 38 39 39 40 41 40 40 41 40 41
6 6 7 8 9 11 12 13 14 14 15 16 18 19 20 20 21 21 22 23 23 24 25 26 27 28 29 30 32 33 34 36 37 38 39 41 42 42 42 42 42 43 43
7 8 9 10 11 13 14 15 15 16 17 18 19 20 21 21 22 22 23 24 24 25 26 27 28 29 30 31 31 33 35 36 37 38 40 42 43 44 45 45 45 45 45
10 11 11 12 13 14 15 16 17 18 19 20 21 21 22 23 23 24 24 25 25 26 27 28 29 30 30 31 32 33 34 36 37 39 41 42 43 44 45 46 47 47 47
13 14 15 15 16 16 17 18 19 20 21 22 22 23 24 24 25 25 26 26 26 27 28 29 30 30 31 32 32 33 34 35 37 39 41 43 44 45 46 46 47 47 47
16 17 17 18 18 19 20 21 21 22 23 24 24 25 26 26 26 27 27 28 28 28 29 30 31 32 33 33 34 34 35 36 37 38 40 42 44 46 47 47 48 48 48
18 19 19 20 21 21 22 22 23 24 25 26 26 27 27 27 28 29 29 30 30 30 30 31 32 33 34 35 35 35 36 36 37 39 40 41 43 45 47 49 49 49 50
21 21 22 23 23 24 24 24 25 26 27 27 28 29 29 29 30 30 31 32 32 32 32 33 33 34 35 36 36 36 36 37 37 39 40 41 42 44 45 47 49 50 51
23 23 24 24 25 25 26 27 27 28 28 29 30 30 31 31 31 32 33 33 34 34 34 34 35 35 36 36 36 36 37 37 37 39 39 40 42 42 44 46 47 49 50
25 25 26 26 27 28 28 29 29 29 30 31 31 32 32 33 33 34 35 35 35 35 36 36 36 37 37 37 37 37 37 37 37 39 39 39 41 42 43 45 46 47 49
26 27 28 28 29 29 30 31 31 31 32 33 33 34 34 35 36 37 37 37 37 37 37 38 38 37 37 38 38 37 37 37 38 38 39 39 40 41 42 44 45 47 48
29 29 30 30 30 31 32 33 34 34 34 35 35 36 36 37 38 38 39 38 39 39 39 39 38 38 38 38 38 37 37 37 37 37 38 39 39 40 41 42 43 44 46
31 31 31 32 32 33 34 35 36 36 36 36 37 38 39 39 40 40 40 40 40 40 40 40 40 39 39 39 38 37 37 37 37 37 38 39 39 39 40 41 42 44 45